Location: Observatory Park - Geauga Park District
(41.5832°N, 81.0716°W)
Time: 17:48:03
(UTC-04:00)

N. Korean satellite - Pass Details

Date: 01 October 2021
Orbit: 450 x 495 km, 97.3° (Epoch: 15 October)

Event Time Altitude Azimuth Distance (km) Brightness Sun altitude
Rises 06:07:40 0° 22° (NNE) 2,547 10.7 -14.6°
Reaches altitude 10° 06:09:54 10° 34° (NNE) 1,670 9.9 -14.2°
Maximum altitude 06:13:07 30° 97° (E) 893 8.7 -13.6°
Drops below altitude 10° 06:16:20 10° 160° (SSE) 1,676 9.4 -13.0°
Sets 06:18:35 0° 171° (S) 2,557 10.3 -12.6°
